CW0570 Weather Reports


Display with metric or nautical units.
time (UTC)temp
F
wind
direction
speed
MPH
gust
MPH
rain 1hr
in
rain 24hr
in
rain mn
in
humidity
%
barometer
mb
20260904043016 55 333 0.0 2.0 0.00 0.26 0.24 97 1014.3
20260904041515 56 333 0.0 0.0 0.00 0.26 0.24 97 1014.2
20260904040015 56 333 0.0 0.0 0.00 0.26 0.24 97 1014.0
20260904034515 56 333 0.0 0.0 0.00 0.28 0.24 97 1013.9
20260904033013 57 333 0.0 0.0 0.00 0.28 0.24 97 1013.7
20260904031512 57 333 0.0 0.0 0.00 0.28 0.24 96 1013.6
20260904030011 57 333 0.0 0.0 0.00 0.28 0.24 96 1013.6
20260904024514 58 333 0.0 0.0 0.00 0.33 0.24 96 1013.6
20260904023011 58 333 0.0 0.0 0.00 0.33 0.24 96 1013.5
20260904021511 58 333 0.0 0.0 0.00 0.33 0.24 96 1013.5
20260904020008 58 333 0.0 0.0 0.00 0.33 0.24 96 1013.6
20260904014508 59 333 0.0 0.0 0.00 0.42 0.24 96 1013.7
20260904013008 59 333 0.0 0.0 0.00 0.42 0.24 96 1013.7
20260904011511 59 333 0.0 0.0 0.00 0.42 0.24 96 1013.8
20260904010009 59 333 0.0 0.0 0.00 0.42 0.24 96 1013.8
20260904004506 59 333 0.0 0.0 0.01 0.51 0.24 96 1013.9
20260904003006 59 333 0.0 3.0 0.07 0.51 0.24 96 1013.9
20260904001506 58 329 1.0 2.0 0.07 0.51 0.24 96 1013.9
20260904000004 57 129 0.0 1.0 0.07 0.51 0.24 96 1014.0
20260903234504 57 130 0.0 2.0 0.06 0.55 0.23 96 1014.1
20260903233003 58 129 0.0 3.0 0.00 0.49 0.17 96 1014.2
20260903231509 58 132 0.0 3.0 0.00 0.49 0.17 95 1014.0
20260903230003 59 113 0.0 2.0 0.00 0.49 0.17 96 1013.9
20260903224508 59 119 0.0 2.0 0.04 0.51 0.17 95 1013.9
20260903223004 59 119 1.0 3.0 0.04 0.51 0.17 97 1014.1
20260903221503 59 121 0.0 2.0 0.05 0.51 0.17 97 1014.1
20260903220100 59 121 0.0 2.0 0.05 0.51 0.17 96 1014.3
20260903214612 59 114 0.0 2.0 0.01 0.49 0.13 95 1014.3
20260903213107 60 128 0.0 3.0 0.01 0.49 0.13 93 1014.3
20260903211603 61 15 0.0 3.0 0.00 0.48 0.12 96 1014.0
20260903210125 61 138 0.0 2.0 0.00 0.48 0.12 96 1014.0
20260903204601 61 138 0.0 2.0 0.00 0.49 0.12 96 1013.7
20260903203110 61 265 0.0 2.0 0.00 0.49 0.12 96 1013.6
20260903201553 61 265 0.0 2.0 0.00 0.49 0.12 96 1013.7
20260903200055 60 265 0.0 2.0 0.00 0.49 0.12 96 1013.8
20260903194551 60 265 0.0 2.0 0.00 0.52 0.12 96 1014.1
20260903193050 60 265 0.0 2.0 0.00 0.52 0.12 96 1014.1
20260903191548 61 265 0.0 3.0 0.01 0.52 0.12 96 1014.1
20260903190046 59 53 0.0 2.0 0.01 0.52 0.12 98 1014.1
20260903184543 58 53 0.0 2.0 0.01 0.54 0.12 98 1014.4
20260903183048 58 120 0.0 0.0 0.01 0.54 0.12 97 1014.3
20260903181542 58 238 0.0 3.0 0.00 0.53 0.11 97 1014.3
20260903180044 58 238 0.0 1.0 0.00 0.53 0.11 98 1014.1
20260903174542 58 238 0.0 2.0 0.00 0.56 0.11 98 1014.0
20260903173042 58 338 0.0 2.0 0.01 0.56 0.11 98 1013.9
20260903171540 58 338 0.0 0.0 0.02 0.56 0.11 98 1014.0
20260903170038 58 338 0.0 0.0 0.02 0.56 0.11 98 1013.9
20260903164539 57 338 0.0 0.0 0.03 0.60 0.11 98 1013.9
20260903163040 57 338 0.0 0.0 0.02 0.59 0.10 98 1014.0
20260903161535 57 338 0.0 2.0 0.01 0.57 0.09 98 1014.0
20260903160035 57 338 0.0 2.0 0.01 0.57 0.09 98 1014.2
20260903154541 57 338 0.0 0.0 0.00 0.59 0.08 98 1014.1
20260903153033 57 338 0.0 0.0 0.03 0.59 0.08 98 1014.2
20260903151531 56 338 0.0 2.0 0.05 0.59 0.08 98 1014.1
20260903150031 56 338 0.0 0.0 0.07 0.59 0.08 98 1014.0
20260903144531 56 338 0.0 0.0 0.07 0.59 0.08 98 1014.0
20260903143033 56 338 0.0 0.0 0.04 0.56 0.05 98 1014.0
20260903141529 56 338 0.0 0.0 0.02 0.54 0.03 98 1014.0
20260903140032 56 338 0.0 0.0 0.00 0.52 0.01 98 1014.0
20260903134528 56 338 0.0 0.0 0.00 0.52 0.01 98 1013.9
20260903133029 56 338 0.0 0.0 0.00 0.52 0.01 98 1013.9
20260903131527 56 338 0.0 0.0 0.00 0.52 0.01 98 1013.9
20260903130027 56 338 0.0 0.0 0.01 0.52 0.01 98 1013.9
20260903124525 56 338 0.0 0.0 0.01 0.52 0.01 98 1014.0
20260903123032 56 338 0.0 0.0 0.01 0.52 0.01 98 1014.1
20260903121524 56 338 0.0 0.0 0.01 0.52 0.01 98 1014.0
20260903120023 56 338 0.0 0.0 0.00 0.51 0.00 98 1014.3
20260903114521 56 338 0.0 0.0 0.00 0.51 0.00 98 1014.3
20260903113027 56 338 0.0 0.0 0.00 0.51 0.00 98 1014.4
20260903111528 56 338 0.0 1.0 0.00 0.51 0.00 98 1014.5
20260903110018 56 338 0.0 0.0 0.00 0.51 0.00 98 1014.5
20260903104519 56 338 0.0 0.0 0.00 0.51 0.00 98 1014.4
20260903103015 56 338 0.0 0.0 0.00 0.51 0.00 98 1014.5
20260903101517 56 338 0.0 0.0 0.00 0.51 0.00 98 1014.7
20260903100015 56 338 0.0 0.0 0.00 0.51 0.00 98 1014.8
20260903094510 56 338 0.0 0.0 0.00 0.51 0.00 98 1014.9
20260903093012 56 338 0.0 0.0 0.00 0.51 0.00 98 1015.1
20260903091512 56 338 0.0 0.0 0.00 0.51 0.00 98 1015.1
20260903090006 56 338 0.0 0.0 0.00 0.51 0.00 98 1015.2
20260903084506 56 338 0.0 0.0 0.00 0.51 0.00 98 1015.1
20260903083004 56 338 0.0 0.0 0.00 0.51 0.00 98 1015.2
20260903081509 56 338 0.0 0.0 0.00 0.51 0.00 98 1015.2
20260903080005 56 338 0.0 0.0 0.00 0.51 0.00 98 1015.3
20260903074503 56 338 0.0 0.0 0.01 0.51 0.00 98 1015.2
20260903073002 56 338 0.0 0.0 0.01 0.51 0.00 98 1015.2
20260903071604 56 338 0.0 0.0 0.01 0.51 0.00 98 1015.0
20260903070100 56 338 0.0 0.0 0.01 0.51 0.00 98 1015.1
20260903064558 56 338 0.0 0.0 0.00 0.50 0.50 98 1015.2
20260903063119 56 338 0.0 0.0 0.00 0.50 0.50 98 1015.1
20260903061559 56 338 0.0 1.0 0.00 0.50 0.50 98 1015.2
20260903060107 56 338 0.0 0.0 0.00 0.50 0.50 98 1015.2
20260903054556 56 338 0.0 0.0 0.00 0.50 0.50 98 1015.3
20260903053055 57 338 0.0 0.0 0.00 0.50 0.50 98 1015.5
20260903051555 57 338 0.0 0.0 0.01 0.50 0.50 98 1015.5
20260903050156 57 338 0.0 0.0 0.01 0.50 0.50 98 1015.4
20260903044553 56 338 0.0 0.0 0.01 0.50 0.50 98 1015.5